Regional Weather Roundup
Issued by NWS Newport/Morehead, NC

Current Version | Previous Version | Graphics & Text | Print | Product List | Glossary On
Versions: 1 2 3 4 5 6 7 8 9 10 11 12 13 14 15 16 17 18 19 20 21 22 23 24 25 26 27 28 29 30 31 32 33 34 35 36 37 38 39 40 41 42 43 44 45 46 47 48 49 50
000 ASUS42 KMHX 010825 RWRMHX WEATHER ROUNDUP FOR EASTERN NORTH CAROLINA NATIONAL WEATHER SERVICE NEWPORT/MOREHEAD CITY NC 400 AM EDT SUN MAY 01 2016 NOTE: "FAIR" INDICATES FEW OR NO CLOUDS BELOW 12,000 FEET WITH NO SIGNIFICANT WEATHER AND/OR OBSTRUCTIONS TO VISIBILITY NCZ015>017-031-032-045>047-102-103-010900- NORTH COAST CITY SKY/WX TMP DP RH WIND PRES REMARKS EDENTON PTCLDY 57 57 100 CALM 30.13S ELIZABETH CITY CLOUDY 56 53 90 E5 30.13S KITTY HAWK MOSUNNY 56 54 92 E3 30.11S MANTEO NOT AVBL $$ NCZ045>047-081-094-103-104-010900- CENTRAL COAST CITY SKY/WX TMP DP RH WIND PRES REMARKS FRISCO CLEAR 59 56 89 NE7 30.10S SWANQUARTER NOT AVBL $$ NCZ095-097-098-100-101-010900- SOUTHERN COAST CITY SKY/WX TMP DP RH WIND PRES REMARKS BEAUFORT CLOUDY 58 57 97 NE3 30.10S CEDAR ISLAND NOT AVBL JACKSONVILLE CLOUDY 62 58 86 E5 30.11R PINEY ISLAND NOT AVBL WILMINGTON CLOUDY 65 63 93 E3 30.10S $$ NCZ011>013-027>030-043-044-078>080-089-090>093-098-010900- COASTAL PLAIN CITY SKY/WX TMP DP RH WIND PRES REMARKS AHOSKIE MOCLDY 54 51 90 CALM 30.14R CLINTON CLOUDY 60 59 97 E3 30.12F ELIZABETHTOWN CLOUDY 61 60 99 CALM 30.11R FOG GOLDSBORO NOT AVBL GREENVILLE CLOUDY 55 54 94 CALM 30.15R HAVELOCK CLOUDY 60 58 92 CALM 30.12S KENANSVILLE CLOUDY 59 57 93 CALM 30.13R KINSTON CLOUDY 60 57 91 CALM 30.13S NEW BERN CLOUDY 60 57 89 NE3 30.12F RICHLANDS CLOUDY 60 58 92 NE7 30.12S ROCKY MOUNT CLOUDY 57 54 89 CALM 30.14R WASHINGTON CLOUDY 55 53 92 NE5 30.13S WHITEVILLE CLOUDY 64 61 91 CALM 30.09S $$ AMZ130-135-150-152-154-156-158-170-250-252-270-ANZ085-086-088-633-658-670-010900- MARINE OBSERVATIONS STATION/POSITION TIME TEMP WIND PRES WAVE SWELL AIR SEA DIR/SP/G HT/PER HT/PER (UTC) (F) (DEG/KT/KT) (MB) (FT/S) (FT/S) CHESAPEAKE LIGHT 0800 54 90/ 11/ 13 1021.1 64 E VA BEACH 0750 55 53 80/ 8/ 10 1019.7 6/10 5/10 DUCK 0800 56 67 90/ 9/ 10 1019.7 2 E DUCK 0711 59 N/A 4/11 2/11 OREGON INLET 0800 58 62 50/ 7/ 10 1019.6 13E OREGON INLT 0800 56 N/A 6/10 7/10 HATTERAS CG 0800 62 68 50/ 7/ 9 1019.2 DIAMOND BUOY 0750 72 73 150/ 12/ 14 1019.1 5/11 5/11 CAPE LOOKOUT 0800 65 60/ 11/ 11 1018.8 BEAUFORT LAB 0800 61 66 20/ 4/ 5 1018.5 30 SE NEW RVR IN 0725 69 N/A 4/10 2/11 27 SE WRIGHTSVLE 0808 74 72 160/ 14/ 19 1018.4 5 SE WRIGHTSVLE 0808 67 68 90/ 8/ 14 1019.6 225 S CAPE HAT 0750 71 90/ 12/ 14 1019.7 6/ 9 5/ 9 41 SE CHARLESTON 0750 74 73 140/ 16/ 19 1017.3 6/ 6 2/10 $$

USA.gov is the U.S. government's official web portal to all federal, state and local government web resources and services.